TIANTONG-1 1 (41725 NORAD) Tracking and Keplerian Element Data

This shows tracking and keplerian element data for the satellite.

Feedback or suggestion? Click here.




ElementValue
Catalog41725
NameTIANTONG-1 1
Epoch Orbit1003
Epoch Day109.89236081
Epoch Year2019
RAAN328.4591
Inclination3.6038
Eccentricity0.0006376
Argument of Perigee49.5998
Mean Anonmoly252.2832
Mean Motion1.00270937
Decay Rate-3.42E-06
L11 41725U 16048A 19109.89236081 -.00000342 00000-0 00000-0 0 9995
L22 41725 3.6038 328.4591 0006376 49.5998 252.2832 1.00270937 10036

Live tracking and technical data element details for TIANTONG-1 1 (NORAD 41725). TIANTONG-1 1 can be tracked NOW for your location showing map with azimuth and elevation plus other details from your city location.

Track the satellite on the map from your city or location and see movement details for azimuth, elevation, latitude, longitude, range, height, and movement on the map or in text.







IsCatalogInMostPopularTable: catalog: 41725, numindb: 339
Update: records affected: 1



GetName: 41725 TIANTONG-1 1

Hit Count: updated at: Sat, 20 Apr 2019 20:21:03 GMT